Regional Weather Roundup
Issued by NWS

Home | Current Version | Previous Version | Graphics & Text | Print | Product List | Glossary On
Versions: 1 2 3 4 5 6 7 8 9 10 11 12 13 14 15 16 17 18 19 20 21 22 23 24 25 26 27 28 29 30 31 32 33 34 35 36 37 38 39 40 41 42 43 44 45 46 47 48 49 50
000
ASUS43 KDTX 070501
RWRMI
MICHIGAN HOURLY REGIONAL WEATHER ROUNDUP
NATIONAL WEATHER SERVICE DETROIT/PONTIAC MI
1200 AM EST SAT MAR 07 2015

NOTE: "FAIR" INDICATES FEW OR NO CLOUDS BELOW 12,000 FEET WITH NO
SIGNIFICANT WEATHER AND/OR OBSTRUCTION TO VISIBILITY.

MIZ047>049-052>055-059>063-066>070-074>076-081>083-070600-
SOUTHEAST LOWER MICHIGAN

CITY           SKY/WX    TMP DP  RH WIND       PRES   REMARKS
ADRIAN         PTCLDY    18   9  68 SW9       30.19F WCI   7
ALMA           CLOUDY    22  12  65 SW10      30.11S WCI  11
ANN ARBOR      CLOUDY    20  10  65 SW13G22   30.17F WCI   7
BAD AXE        CLOUDY    22  11  63 SW13G23   30.10S WCI  10
CARO           CLOUDY    22  11  62 SW12      30.10F WCI  11
DETROIT CITY   CLOUDY    25  10  53 SW16G24   30.17F WCI  12
DETROIT        MOCLDY    23  11  60 SW18      30.19F WCI   9
FLINT          CLOUDY    22   9  57 SW9       30.14F WCI  12
GROSSE ILE     PTCLDY    21  12  68 S12G17    30.19S WCI   9
HILLSDALE      CLEAR     20   9  63 SW9       30.15F WCI   9
HOWELL         CLEAR     20   9  62 SW8       30.13S WCI  10

CITY           SKY/WX    TMP DP  RH WIND       PRES   REMARKS
JACKSON        CLEAR     21  10  62 SW13      30.14F WCI   9
LAMBERTVILLE   PTCLDY    25  12  58 SW10G20   30.21F WCI  15
LANSING        CLEAR     21  10  62 SW13      30.14F WCI   9
LAPEER         CLOUDY    22  10  61 W12       30.12F WCI  10
MASON          CLEAR     21  10  62 SW8       30.14S WCI  11
MONROE         PTCLDY    21  10  63 SW13G18   30.19S WCI   9
MT. CLEMENS    CLOUDY    24  11  58 SW15G22   30.14F WCI  11
PONTIAC        CLOUDY    20  10  65 SW12      30.13F WCI   8
PORT HOPE        N/A     22   9  57 W13G23    30.06F WCI  10
PORT HURON     CLOUDY    21  12  68 SW8       30.15F WCI  12
TRI CITIES     CLOUDY    23  11  60 SW15      30.10F WCI  10
TROY           MOCLDY    24  10  56 SW13G20   30.18S WCI  12
SAGINAW HB     MOCLDY    25  14  63 SW14      30.10F WCI  13
$$
MIZ043>046-050>051-056>058-064>065-071>073-077>080-070600-
SOUTHWEST LOWER MICHIGAN

CITY           SKY/WX    TMP DP  RH WIND       PRES   REMARKS
BATTLE CREEK   FAIR      20   9  62 SW14      30.14F WCI   7
BENTON HARBOR  PTCLDY    20  13  74 S7        30.16F WCI  11
BIG RAPIDS     CLOUDY    25  21  85 SW5       30.05F WCI  19
COLDWATER      CLEAR     19   9  64 SW8       30.16F WCI   9
FREMONT        CLOUDY    28  20  74 SW7       30.08F WCI  20
HOLLAND        PTCLDY    24  17  74 SW13      30.13F WCI  12
GRAND RAPIDS   CLOUDY    21  12  68 SW9       30.13F WCI  11
IONIA          CLOUDY    23  13  67 SW10      30.12S WCI  12
KALAMAZOO      CLEAR     21  10  62 SW10      30.15F WCI  10
LUDINGTON      PTCLDY    31  23  73 W9G17     30.07S WCI  23
MARSHALL       CLEAR     20   9  64 SW8G16    30.14F WCI  10
MOUNT PLEASANT CLOUDY    24  16  70 SW8       30.08F WCI  16
MUSKEGON       PTCLDY    29  22  75 SW13      30.11F WCI  19
SOUTH HAVEN    PTCLDY    24  16  69 SW10      30.15F WCI  14
$$
MIZ016>042-070600-
NORTHERN LOWER MICHIGAN

CITY           SKY/WX    TMP DP  RH WIND       PRES   REMARKS
ALPENA         PTCLDY    23  13  65 SW8       30.00F WCI  14
BEAVER ISLAND  CLEAR     15  12  86 CALM      29.97F
BELLAIRE       CLEAR     20  16  85 SW5       30.02S WCI  13
CADILLAC       CLOUDY    21  17  84 SW8       30.00F WCI  11
CHARLEVOIX     CLEAR     23  18  80 CALM      30.01F
FRANKFORT      CLEAR     28  22  78 W7        30.03F WCI  21
GAYLORD        CLEAR     20  16  84 SW13      29.96F WCI   7
GRAYLING       CLEAR     21  15  78 SW3       30.00F
HARBOR SPRINGS CLEAR     22  17  81 SW3       29.98F
HOUGHTON LAKE  MOCLDY    20  14  77 SW8       30.02F WCI  10
MANISTEE       CLEAR     27  19  74 SW8       30.05F WCI  18
OSCODA         CLOUDY    21   9  59 SW12      30.04F WCI   9
PELLSTON       CLEAR     24  17  74 SW8       29.98F WCI  15
ROGERS CITY    CLEAR     23  17  77 SW9       29.99F WCI  13
TRAVERSE CITY  CLEAR     25  17  72 SW5       30.01F WCI  19
$$
MIZ007>008-015-070600-
EASTERN UPPER MICHIGAN

CITY           SKY/WX    TMP DP  RH WIND       PRES   REMARKS
KINROSS        CLEAR     18  18 100 SW5       29.94F WCI  11
MACKINAC ISLAN CLEAR     21  17  83 SW10G23   29.96F WCI  10
NEWBERRY       CLEAR     14  10  81 SW8       29.93S WCI   3
S. S. MARIE    CLEAR     17  11  77 W5        29.94F WCI  10
MUNISING         N/A     12   5  73 S8        29.94F WCI   0
$$
MIZ004>006-011>014-085-070600-
CENTRAL UPPER MICHIGAN

CITY           SKY/WX    TMP DP  RH WIND       PRES   REMARKS
MANISTIQUE     CLEAR     16  12  83 CALM      29.96S
ESCANABA       CLEAR     18   9  68 W5        29.99S WCI  11
MENOMINEE      CLEAR     21  10  63 W3        30.01S
SAWYER-GWINN   CLEAR     19   9  64 SW3       29.92S
$$
MIZ001>003-009>011-084-070600-
WESTERN UPPER MICHIGAN

CITY           SKY/WX    TMP DP  RH WIND       PRES   REMARKS
IRON MOUNTAIN  CLEAR     20   8  60 SW5       29.94F WCI  13
HOUGHTON       PTCLDY    20  13  74 W10       29.88F WCI   9
COPPER HARBOR    N/A     27  11  51 N9G17     29.89S WCI  18
IRONWOOD       CLEAR     18   9  68 SW5       29.91F WCI  11
$$

ABBREVIATIONS USED IN REMARKS
   TC - TEMPERATURE IN CELSIUS
  WCI - WIND CHILL INDEX
   HX - HEAT INDEX
  VSB - VISIBILITY




USA.gov is the U.S. government's official web portal to all federal, state and local government web resources and services.